When you browse on this site, cookies collect data to enhance your experience and personalize the content and advertising you see.
Visit our Privacy Policy to learn more. By continuing to use the site, you agree to this use of cookies and data.
  • In Hungary
  • List of Countries
  • For 7 days
  • Water Temperature
  • Satellite Maps
  • Weather Map
  • News
  • Weather Widgets
  • user-avatar
    Login

    Hourly Weather Bar

    Today, 18 January, Friday

    Time Temperature Precipitation Wind Pressure Humidity
    00:00 -4°C° 0 mm 3 mps 730 mmHg 88%
    01:00 -4°C° 0 mm 3 mps 730 mmHg 87%
    02:00 -4°C° 0 mm 3 mps 730 mmHg 86%
    03:00 -4°C° 0 mm 3 mps 730 mmHg 86%
    04:00 -4°C° 0 mm 3 mps 729 mmHg 86%
    05:00 -4°C° 0 mm 3 mps 729 mmHg 86%
    06:00 -2°C° 0.1 mm 3 mps 729 mmHg 86%
    07:00 -2°C° 0.1 mm 4 mps 729 mmHg 87%
    08:00 -1°C° 0.1 mm 4 mps 729 mmHg 88%
    09:00 -1°C° 0 mm 4 mps 729 mmHg 89%
    10:00 0°C° 0 mm 3 mps 729 mmHg 91%
    11:00 0°C° 0 mm 3 mps 730 mmHg 92%
    12:00 0°C° 0 mm 3 mps 730 mmHg 95%
    13:00 0°C° 0 mm 3 mps 730 mmHg 97%
    14:00 +1°C° 0 mm 2 mps 730 mmHg 99%
    15:00 +1°C° 0 mm 2 mps 730 mmHg 98%
    16:00 +1°C° 0 mm 2 mps 730 mmHg 97%
    17:00 0°C° 0 mm 3 mps 731 mmHg 96%
    18:00 0°C° 0.1 mm 3 mps 731 mmHg 95%
    19:00 0°C° 0.1 mm 3 mps 732 mmHg 94%
    20:00 -1°C° 0.1 mm 3 mps 732 mmHg 93%
    21:00 -1°C° 0.1 mm 3 mps 733 mmHg 93%
    22:00 -3°C° 0.1 mm 4 mps 733 mmHg 92%
    23:00 -3°C° 0.1 mm 4 mps 734 mmHg 92%

    Tomorrow, 19 January, Saturday

    Time Temperature Precipitation Wind Pressure Humidity
    00:00 -4°C° 0 mm 4 mps 735 mmHg 92%
    01:00 -4°C° 0 mm 4 mps 735 mmHg 93%
    02:00 -5°C° 0 mm 4 mps 736 mmHg 93%
    03:00 -6°C° 0 mm 3 mps 736 mmHg 92%
    04:00 -8°C° 0 mm 3 mps 736 mmHg 92%
    05:00 -9°C° 0 mm 3 mps 737 mmHg 91%
    06:00 -10°C° 0 mm 3 mps 737 mmHg 92%
    07:00 -10°C° 0 mm 3 mps 738 mmHg 93%
    08:00 -9°C° 0 mm 2 mps 738 mmHg 94%
    09:00 -8°C° 0 mm 2 mps 739 mmHg 93%
    10:00 -7°C° 0 mm 2 mps 739 mmHg 92%
    11:00 -7°C° 0 mm 2 mps 740 mmHg 92%
    12:00 -6°C° 0 mm 2 mps 740 mmHg 92%
    13:00 -6°C° 0 mm 2 mps 740 mmHg 92%
    14:00 -5°C° 0 mm 2 mps 740 mmHg 92%
    15:00 -4°C° 0 mm 1 mps 740 mmHg 91%
    16:00 -7°C° 0 mm 1 mps 740 mmHg 91%
    17:00 -8°C° 0 mm 1 mps 740 mmHg 91%
    18:00 -8°C° 0 mm 1 mps 740 mmHg 90%
    19:00 -9°C° 0 mm 1 mps 740 mmHg 89%
    20:00 -9°C° 0 mm 0 mps 740 mmHg 88%
    21:00 -10°C° 0 mm 1 mps 740 mmHg 87%
    22:00 -10°C° 0 mm 1 mps 740 mmHg 87%
    23:00 -10°C° 0 mm 1 mps 740 mmHg 87%

    Day after tomorrow, 20 January, Sunday

    Time Temperature Precipitation Wind Pressure Humidity
    00:00 -12°C° 0 mm 2 mps 740 mmHg 87%
    01:00 -12°C° 0 mm 2 mps 740 mmHg 87%
    02:00 -12°C° 0 mm 2 mps 740 mmHg 88%
    03:00 -12°C° 0 mm 2 mps 739 mmHg 88%
    04:00 -13°C° 0 mm 3 mps 739 mmHg 89%
    05:00 -13°C° 0 mm 3 mps 738 mmHg 89%
    06:00 -13°C° 0 mm 3 mps 738 mmHg 89%
    07:00 -13°C° 0 mm 3 mps 738 mmHg 89%
    08:00 -12°C° 0 mm 4 mps 738 mmHg 88%
    09:00 -11°C° 0 mm 4 mps 738 mmHg 87%
    10:00 -11°C° 0 mm 5 mps 737 mmHg 85%
    11:00 -10°C° 0 mm 5 mps 737 mmHg 84%
    12:00 -10°C° 0.1 mm 5 mps 736 mmHg 86%
    13:00 -8°C° 0.1 mm 5 mps 736 mmHg 89%
    14:00 -7°C° 0.1 mm 5 mps 735 mmHg 92%
    15:00 -7°C° 0.2 mm 4 mps 735 mmHg 93%
    16:00 -7°C° 0.2 mm 4 mps 734 mmHg 94%
    17:00 -6°C° 0.2 mm 3 mps 734 mmHg 96%
    18:00 -5°C° 0.5 mm 2 mps 734 mmHg 96%
    19:00 -2°C° 0.5 mm 1 mps 734 mmHg 97%
    20:00 -2°C° 0.5 mm 1 mps 734 mmHg 98%
    21:00 -2°C° 0.3 mm 1 mps 734 mmHg 97%
    22:00 -2°C° 0.3 mm 1 mps 734 mmHg 97%
    23:00 -4°C° 0.3 mm 2 mps 734 mmHg 97%

    21 January, Monday

    Time Temperature Precipitation Wind Pressure Humidity
    00:00 -6°C° 0 mm 2 mps 734 mmHg 96%
    01:00 -8°C° 0 mm 3 mps 734 mmHg 96%
    02:00 -9°C° 0 mm 3 mps 734 mmHg 95%
    03:00 -10°C° 0 mm 3 mps 734 mmHg 96%
    04:00 -10°C° 0 mm 3 mps 735 mmHg 96%
    05:00 -12°C° 0 mm 3 mps 735 mmHg 96%
    06:00 -12°C° 0 mm 3 mps 735 mmHg 95%
    07:00 -13°C° 0 mm 3 mps 736 mmHg 94%
    08:00 -13°C° 0 mm 3 mps 736 mmHg 93%
    09:00 -12°C° 0 mm 4 mps 737 mmHg 93%
    10:00 -12°C° 0 mm 5 mps 737 mmHg 92%
    11:00 -10°C° 0 mm 5 mps 738 mmHg 92%
    12:00 -10°C° 0 mm 5 mps 738 mmHg 90%
    13:00 -8°C° 0 mm 5 mps 739 mmHg 88%
    14:00 -7°C° 0 mm 5 mps 739 mmHg 86%
    15:00 -9°C° 0 mm 4 mps 739 mmHg 89%
    16:00 -9°C° 0 mm 3 mps 740 mmHg 91%
    17:00 -12°C° 0 mm 3 mps 740 mmHg 93%
    18:00 -12°C° 0 mm 3 mps 740 mmHg 93%
    19:00 -12°C° 0 mm 2 mps 741 mmHg 92%
    20:00 -13°C° 0 mm 2 mps 741 mmHg 92%
    21:00 -13°C° 0 mm 2 mps 741 mmHg 92%
    22:00 -12°C° 0 mm 1 mps 741 mmHg 92%
    23:00 -12°C° 0 mm 1 mps 741 mmHg 91%

    22 January, Tuesday

    Time Temperature Precipitation Wind Pressure Humidity
    00:00 -12°C° 0 mm 1 mps 741 mmHg 91%
    01:00 -13°C° 0 mm 1 mps 741 mmHg 90%
    02:00 -13°C° 0 mm 0 mps 741 mmHg 90%
    03:00 -13°C° 0 mm 1 mps 741 mmHg 89%
    04:00 -13°C° 0 mm 1 mps 741 mmHg 88%
    05:00 -15°C° 0 mm 2 mps 740 mmHg 87%
    06:00 -15°C° 0 mm 2 mps 740 mmHg 88%
    07:00 -16°C° 0 mm 2 mps 740 mmHg 88%
    08:00 -17°C° 0 mm 3 mps 740 mmHg 88%
    09:00 -15°C° 0 mm 3 mps 739 mmHg 87%
    10:00 -15°C° 0 mm 4 mps 739 mmHg 86%
    11:00 -14°C° 0 mm 4 mps 739 mmHg 85%
    12:00 -12°C° 0 mm 4 mps 738 mmHg 86%
    13:00 -13°C° 0 mm 5 mps 737 mmHg 86%
    14:00 -12°C° 0 mm 5 mps 737 mmHg 86%
    15:00 -12°C° 0 mm 4 mps 736 mmHg 88%
    16:00 -12°C° 0 mm 4 mps 736 mmHg 91%
    17:00 -14°C° 0 mm 4 mps 735 mmHg 94%
    18:00 -12°C° 0 mm 4 mps 735 mmHg 94%
    19:00 -11°C° 0 mm 5 mps 735 mmHg 93%
    20:00 -8°C° 0 mm 5 mps 734 mmHg 93%
    21:00 -8°C° 0 mm 5 mps 734 mmHg 93%
    22:00 -9°C° 0 mm 6 mps 733 mmHg 93%
    23:00 -9°C° 0 mm 6 mps 733 mmHg 92%

    23 January, Wednesday

    Time Temperature Precipitation Wind Pressure Humidity
    00:00 -8°C° 0 mm 6 mps 732 mmHg 92%
    01:00 -8°C° 0 mm 6 mps 732 mmHg 92%
    02:00 -8°C° 0 mm 6 mps 731 mmHg 92%
    03:00 -8°C° 0 mm 6 mps 730 mmHg 92%
    04:00 -8°C° 0 mm 6 mps 730 mmHg 92%
    05:00 -8°C° 0 mm 7 mps 729 mmHg 92%
    06:00 -7°C° 0 mm 7 mps 729 mmHg 92%
    07:00 -6°C° 0 mm 6 mps 728 mmHg 93%
    08:00 -6°C° 0 mm 6 mps 728 mmHg 93%
    09:00 -6°C° 0.1 mm 7 mps 728 mmHg 93%
    10:00 -4°C° 0.1 mm 7 mps 728 mmHg 92%
    11:00 -3°C° 0.1 mm 7 mps 728 mmHg 92%
    12:00 -3°C° 0.1 mm 7 mps 727 mmHg 92%
    13:00 -3°C° 0.1 mm 7 mps 727 mmHg 93%
    14:00 -2°C° 0.1 mm 8 mps 726 mmHg 93%
    15:00 -3°C° 0.1 mm 7 mps 726 mmHg 93%
    16:00 -4°C° 0.1 mm 7 mps 726 mmHg 93%
    17:00 -4°C° 0.1 mm 7 mps 726 mmHg 93%
    18:00 -6°C° 0.3 mm 7 mps 726 mmHg 93%
    19:00 -6°C° 0.3 mm 6 mps 725 mmHg 94%
    20:00 -6°C° 0.3 mm 6 mps 725 mmHg 94%
    21:00 -6°C° 0.2 mm 6 mps 725 mmHg 94%
    22:00 -6°C° 0.2 mm 5 mps 725 mmHg 94%
    23:00 -6°C° 0.2 mm 5 mps 725 mmHg 94%
    Show more